Flag for Germany Weather past 2 weeks in Rathenow, Brandenburg, Germany

Now
61 °F

Overcast.


Feels Like: 61 °F
Forecast: 56 / 67 °F
Wind: N/A

Location: Neuruppin

Current Time: Aug 30, 2014 at 10:33:17 PM

Latest Report: Aug 30, 2014 at 10:00 PM


Visibility: 6 mi

Pressure: 29.99 "Hg

Humidity: 91%

Dew point: 58 °F

Location of RathenowLocation

Historic Weather in Rathenow — Graph

°F

Rathenow temperature yesterday

Maximum temperature yesterday: 68 °F (at 6:00 PM)
Minimum temperature yesterday: 53 °F (at 6:00 AM)
Average temperature yesterday: 60 °F

Past Weeks' High & Low Weather Summary

 TemperatureHumidityPressure
High72 °F (Aug 28, 4:00 PM)98% (Aug 26, 7:00 AM)30.07 "Hg (Aug 26, 7:00 AM)
Low45 °F (Aug 25, 7:00 AM)37% (Aug 28, 4:00 PM)29.58 "Hg (Aug 18, 3:00 PM)
Average57 °F75%29.90 "Hg
* Reported Aug 15 9:00 PM — Aug 30 9:00 PM, Rathenow, Weather by CustomWeather, © 2014

Note: Actual official high and low records may vary slightly from our data, if they occured in-between our weather recording intervals... More about our weather records

Advertising

Rathenow weather history for previous 24 hours

 ConditionsComfort  
Time TempWeatherWind HumidityBarometerVisibility
9:00 PM
Aug 30
62 °FOvercast.1 mph87%29.97 "Hg6 mi
8:00 PM62 °FOvercast.1 mph87%29.97 "Hg6 mi
7:00 PM63 °FOvercast.1 mph83%29.98 "Hg6 mi
6:00 PM65 °FOvercast.N/A74%29.99 "Hg6 mi
4:00 PM65 °FOvercast.N/A82%30.00 "Hg6 mi
3:00 PM67 °FOvercast.N/A67%30.00 "Hg7 mi
2:00 PM67 °FOvercast.N/A66%30.00 "Hg6 mi
1:00 PM68 °FOvercast.N/A65%30.00 "Hg6 mi
12:00 PM68 °FOvercast.N/A71%30.01 "Hg6 mi
10:00 AM61 °FScattered clouds.N/A88%30.01 "Hg6 mi
9:00 AM58 °FCool.N/A97%30.01 "Hg4 mi
8:00 AM54 °FCool.N/A98%30.00 "Hg1 mi
7:00 AM53 °FCool.N/A98%30.00 "Hg1 mi
6:00 AM52 °FDense fog.N/A98%29.99 "Hg1 mi
4:00 AM53 °FClear.No wind97%29.99 "Hg2 mi
3:00 AM54 °FClear.N/A95%29.99 "Hg4 mi
2:00 AM54 °FClear.N/A94%29.99 "Hg6 mi
1:00 AM54 °FClear.N/A94%29.98 "Hg6 mi
12:00 AM55 °FClear.1 mph95%29.98 "Hg3 mi
10:00 PM
Aug 29
57 °FClear.1 mph92%29.97 "Hg4 mi
Weather by CustomWeather, © 2014

See weather overviewHow to use our weather pages